Wind_Speed
81 80 80 79 78 79 80 82 83 84 84 84 85 85 85 85 84 84 84 83 83 83 82 82 82 82 82 83 83 84 84 85 86 86 87 88 88 89 89 90 90 90 90 90 91 91 91 92 92 92 92 92 92 93 93 94 95 96 97 98 99 99 100 100 100 101 101 101 100 99 97 96 95 94 93 93 93 93 93 93 94 94 94 94 94 93
75 75 74 73 73 74 76 79 81 81 81 82 83 84 84 83 83 83 84 84 83 82 81 81 80 81 81 82 83 83 84 85 85 86 87 88 89 89 90 90 90 90 91 91 92 92 92 93 93 93 93 93 93 94 95 96 97 98 99 100 100 101 101 102 102 102 101 101 99 98 97 96 95 94 94 93 93 93 93 93 94 93 93 93 92 91
68 68 68 68 68 70 73 76 78 78 78 78 80 81 82 81 81 82 83 84 83 82 80 80 80 80 81 81 82 83 83 84 85 86 87 88 89 89 90 90 90 91 91 92 92 93 93 93 93 93 94 94 95 96 97 98 99 100 101 101 102 102 102 102 102 101 100 99 97 96 95 94 94 94 93 93 93 93 93 93 93 93 92 91 90 89
61 61 62 62 63 66 70 73 75 74 74 74 76 78 79 79 79 81 83 83 83 81 80 79 79 80 80 81 81 82 83 84 85 86 87 88 89 89 90 90 91 91 91 92 92 93 93 94 94 94 95 95 96 97 98 99 100 101 101 102 102 102 101 100 99 98 97 96 95 94 94 93 93 93 93 93 93 93 92 92 92 91 90 89 87 86
54 55 55 56 58 62 67 70 71 70 70 70 72 74 75 76 77 79 81 82 82 80 79 79 79 79 80 81 82 82 83 83 84 85 87 88 89 89 90 90 91 91 92 92 93 93 94 94 95 95 96 96 97 98 98 99 100 100 100 100 99 99 97 96 95 94 94 93 93 93 93 93 93 93 93 93 92 92 92 91 90 89 88 86 85 83
47 48 49 50 53 58 62 66 66 65 65 66 68 70 72 73 74 76 79 80 81 80 79 79 79 79 80 81 82 82 83 83 84 85 86 88 88 89 90 90 91 91 92 92 93 93 94 94 95 95 96 96 97 97 98 98 98 97 97 96 95 94 93 93 92 92 92 92 92 92 92 92 92 92 92 92 91 91 90 89 88 86 85 84 82 81
40 41 42 45 49 53 57 59 60 59 59 60 63 66 68 70 71 73 75 78 79 79 80 79 79 79 80 81 81 82 82 83 84 85 86 87 88 89 90 91 91 92 92 93 93 93 94 94 94 95 95 95 95 95 95 95 94 93 93 92 92 92 91 92 92 92 92 92 92 93 92 92 92 92 91 90 89 88 87 86 85 84 83 82 81 80
34 35 36 39 43 47 50 52 52 52 53 56 59 62 64 67 69 70 73 75 76 78 78 78 78 78 79 79 80 80 81 82 83 84 85 86 87 88 89 90 90 91 92 92 93 93 93 93 93 93 93 93 93 93 93 92 92 91 91 91 91 91 92 92 92 92 93 92 92 92 92 91 91 90 89 88 87 86 85 84 83 82 81 81 80 80
29 29 30 32 36 39 42 44 45 47 48 51 54 57 60 63 65 67 69 71 72 73 74 75 75 75 76 76 76 77 78 79 80 82 83 84 85 86 87 88 89 89 90 90 91 91 91 92 92 92 92 92 92 91 91 91 91 91 91 91 91 92 92 92 92 92 92 91 91 90 89 89 88 87 86 85 84 83 83 82 81 81 81 80 80 80
25 25 26 27 29 31 34 36 38 40 42 45 47 51 53 56 58 60 62 64 65 66 67 69 70 70 71 72 72 73 75 76 78 79 80 82 83 84 85 85 86 87 87 88 88 89 89 90 90 90 90 90 90 90 90 90 90 90 90 91 91 91 91 91 90 90 89 89 88 87 86 86 85 84 84 83 82 82 81 81 81 81 81 81 81 81
25 24 24 25 26 27 29 31 33 35 37 39 41 44 46 48 50 52 54 56 58 60 62 63 64 66 67 68 69 70 72 74 75 76 78 79 80 81 82 82 83 84 84 85 86 86 87 87 88 88 88 88 88 88 88 88 88 88 89 89 89 88 88 88 87 87 86 86 85 84 84 83 83 82 82 82 81 81 81 82 82 82 82 82 82 83
28 27 26 26 27 27 28 30 31 33 34 36 38 40 42 44 46 48 50 52 54 56 58 60 61 62 64 65 67 68 69 71 73 74 74 75 76 77 78 79 79 80 81 81 82 83 84 84 85 85 85 85 85 85 85 85 85 86 85 85 85 85 85 84 84 83 83 83 82 82 82 82 82 82 82 82 82 82 82 82 82 83 83 83 84 84
32 31 31 30 30 30 30 31 32 33 34 35 36 38 39 41 42 44 46 48 50 52 53 55 57 58 59 61 62 64 65 67 68 68 69 70 71 72 73 74 75 76 76 77 78 79 79 80 80 80 80 81 81 81 81 81 82 82 82 82 82 82 82 81 81 81 81 81 81 82 82 82 82 82 82 83 83 83 83 83 84 84 84 85 85 85
33 33 33 33 33 33 33 33 34 35 35 36 37 38 39 39 40 41 43 44 46 47 48 50 51 53 53 54 56 57 59 60 61 62 62 64 65 66 67 68 69 70 71 72 73 74 74 75 75 75 76 76 77 77 77 78 78 78 79 79 79 80 80 80 81 81 81 82 82 82 83 83 83 83 83 84 84 84 85 85 85 86 86 86 87 87
31 31 32 32 32 33 33 34 35 35 36 36 37 38 39 39 40 40 41 42 43 44 45 46 47 48 49 50 51 52 54 55 55 56 57 59 60 61 62 63 64 65 66 67 69 69 70 70 71 72 72 73 74 74 75 76 76 77 78 78 79 79 80 80 81 82 82 83 83 83 84 84 84 84 85 85 86 86 86 87 87 88 88 88 89 89
29 29 30 30 30 31 31 32 33 34 34 35 36 36 37 38 39 39 40 41 42 43 44 45 46 47 47 48 49 50 51 52 53 54 55 56 57 58 59 60 62 63 64 65 66 67 68 69 69 70 71 72 73 74 75 76 77 78 78 79 80 80 81 82 82 83 84 84 84 85 85 86 86 86 87 87 88 88 89 89 90 90 91 91 91 92
29 29 29 30 30 30 31 31 32 32 33 34 35 36 37 37 38 39 40 41 42 43 44 45 46 47 48 48 48 49 50 51 52 53 55 56 57 58 58 60 61 63 64 65 66 67 68 69 70 71 72 73 74 75 76 77 78 79 80 81 81 82 83 83 84 85 85 86 86 87 87 88 88 89 89 90 90 91 91 92 92 92 93 93 93 94
31 31 31 31 31 32 32 32 33 33 34 35 36 37 37 38 39 40 41 42 43 44 44 45 46 47 48 50 50 50 51 52 54 55 56 58 59 60 60 61 63 64 66 67 68 69 70 71 72 73 74 75 76 77 78 79 80 81 82 82 83 84 84 85 86 87 87 88 88 89 89 90 90 91 91 92 92 93 93 93 94 94 94 94 94 94
33 32 32 33 33 33 34 34 34 35 36 37 37 38 39 40 40 41 42 43 44 45 46 47 48 49 50 52 53 53 53 55 56 58 59 60 62 62 63 64 65 67 68 69 70 71 72 73 74 75 76 77 78 79 80 81 82 83 84 84 85 86 87 87 88 89 89 90 90 91 91 92 92 92 93 93 93 93 94 94 94 94 94 94 94 94
35 35 34 35 35 35 36 36 37 37 38 39 40 41 41 42 43 44 45 46 47 48 49 50 51 52 53 55 56 57 57 58 59 61 62 63 64 65 66 67 68 70 71 72 73 74 75 76 77 77 78 79 80 81 82 83 84 85 86 87 87 88 89 89 90 91 91 91 92 92 92 92 92 92 92 92 92 92 92 92 92 92 92 92 92 92
37 37 37 37 37 38 38 39 39 40 41 42 42 44 44 45 46 47 48 49 50 51 52 53 54 55 56 58 59 60 60 61 62 64 65 66 67 68 69 70 71 72 74 75 75 76 77 78 79 80 81 82 83 84 85 86 86 87 88 89 89 90 90 91 91 91 91 91 91 91 91 91 91 90 90 90 90 90 90 90 90 90 91 91 91 91
39 39 39 39 39 40 41 41 42 42 43 43 44 45 46 47 48 49 50 51 52 53 54 55 56 57 58 59 61 61 62 63 64 65 67 68 69 70 71 72 73 75 76 77 77 78 79 80 81 82 83 84 85 85 86 87 88 88 89 89 89 90 90 90 90 90 90 89 89 89 88 88 88 88 88 88 88 88 89 89 89 89 90 90 90 90
39 40 40 40 40 41 42 42 43 43 44 44 45 46 47 48 49 50 51 52 53 54 55 56 56 57 58 60 61 62 63 64 65 66 68 69 71 71 72 73 74 76 77 78 79 80 81 82 83 83 84 85 85 86 86 87 87 88 88 88 88 88 88 88 88 88 87 87 87 86 86 86 86 87 87 87 87 88 88 88 88 89 89 89 89 89
40 40 40 41 41 42 42 43 43 44 44 45 46 46 47 48 49 50 51 52 53 54 55 56 57 58 59 60 62 63 64 65 66 68 69 71 72 73 74 75 76 78 79 80 80 81 82 83 84 84 84 85 85 85 86 86 86 86 86 86 86 86 86 86 86 86 86 85 85 85 85 85 86 86 86 86 87 87 87 87 87 87 87 88 88 88
40 41 41 41 42 42 43 43 44 45 45 46 46 47 48 49 50 51 52 53 54 55 56 57 59 60 61 62 63 65 66 67 68 70 72 73 75 75 76 76 78 79 80 81 81 82 83 84 84 84 84 84 84 85 85 85 85 85 85 85 85 85 85 85 85 85 85 85 84 84 85 85 85 85 85 86 86 86 86 85 85 85 85 85 86 86
42 42 42 43 43 43 44 45 45 46 47 48 48 49 50 51 52 53 54 55 56 58 59 60 62 63 64 65 66 68 69 70 71 72 74 75 77 77 77 78 78 80 81 81 81 82 82 83 83 83 83 83 83 83 83 84 84 84 84 84 84 84 85 85 84 84 84 84 84 84 84 84 84 84 84 84 84 83 83 83 83 82 82 83 83 83
44 44 44 45 45 46 46 47 48 49 49 50 51 52 53 54 55 56 58 58 59 60 62 63 65 66 66 68 69 70 71 72 73 74 75 77 78 79 79 78 79 79 80 81 81 81 82 82 83 83 82 82 82 83 83 83 83 84 84 84 84 84 84 84 84 83 83 83 83 82 82 82 82 82 82 82 81 80 80 80 79 79 79 79 79 80
46 46 46 47 47 48 48 49 50 51 52 52 53 54 55 56 58 59 60 61 62 63 65 66 67 68 69 70 71 72 73 74 75 76 76 77 78 79 79 78 78 79 80 80 80 81 81 82 82 83 83 83 83 83 83 83 84 84 84 84 83 83 83 83 82 82 82 81 81 81 80 80 80 79 79 78 77 77 76 76 75 75 75 76 76 76
47 48 48 49 49 50 50 51 52 53 54 55 55 56 57 58 60 62 63 64 65 66 68 69 70 71 72 73 73 74 74 75 75 76 76 77 78 79 78 78 78 78 78 79 80 81 82 82 83 84 84 84 85 85 85 84 84 84 83 83 83 82 82 81 81 80 79 79 78 78 77 77 76 76 75 74 73 72 72 72 71 72 72 72 72 72
49 49 50 50 51 51 52 53 53 54 55 56 57 59 59 61 62 63 65 66 67 69 70 71 72 73 74 75 75 75 75 75 75 75 76 77 77 78 77 77 77 77 77 78 79 81 83 83 84 85 86 86 86 86 86 85 85 84 83 82 82 81 80 79 78 77 76 76 75 74 73 73 72 71 70 69 68 68 68 68 68 68 68 68 68 67
50 51 51 52 52 53 54 54 55 56 57 58 59 60 61 63 64 65 67 68 69 71 72 73 74 75 75 76 76 76 76 75 74 74 74 75 76 76 76 76 76 76 76 77 79 81 83 85 86 86 87 88 88 88 87 86 85 83 82 81 80 79 77 76 75 74 72 71 71 70 69 68 67 66 65 65 64 64 65 65 65 65 65 64 64 64
52 52 53 53 54 55 55 56 57 58 59 60 61 62 63 64 66 67 68 70 71 72 73 74 75 76 76 76 76 76 75 74 73 73 73 73 74 74 74 75 75 76 76 76 78 79 82 84 86 87 88 88 89 88 87 86 84 83 81 80 78 76 74 72 71 69 68 67 66 65 64 63 62 61 61 61 61 62 62 62 62 62 61 61 61 62
53 54 54 55 55 56 57 57 58 59 60 61 62 63 65 66 67 69 70 71 72 73 74 75 75 76 76 75 75 75 74 73 72 71 71 72 72 73 73 74 74 75 76 76 77 79 80 82 84 86 87 88 88 88 87 85 83 82 80 78 76 73 71 69 67 65 64 63 62 61 60 59 58 58 58 59 59 60 60 60 59 59 59 59 59 60
55 55 56 56 57 57 58 59 60 61 62 63 64 65 66 68 69 70 71 72 73 73 74 74 75 75 75 75 74 73 72 71 70 70 70 70 71 72 73 73 74 75 76 77 78 78 80 81 82 84 85 87 87 87 86 84 82 80 78 76 73 71 68 65 63 61 60 59 58 57 56 56 55 56 56 57 58 58 58 57 57 57 57 57 58 59
57 57 57 58 58 59 60 60 61 62 63 64 65 67 68 69 70 71 72 73 73 74 74 74 74 74 73 73 73 72 71 70 69 69 69 70 70 71 72 73 74 75 76 77 77 78 79 80 81 82 83 84 85 84 84 82 81 79 76 73 71 68 65 62 60 58 57 56 55 54 54 54 54 54 55 56 56 56 56 55 55 55 55 56 57 57
58 59 59 59 60 60 61 62 63 63 65 66 67 68 69 71 71 72 73 73 73 73 73 73 73 72 72 71 71 71 70 70 69 69 69 70 70 71 72 73 74 75 76 76 77 78 79 80 80 80 81 82 82 81 80 79 78 76 73 71 68 65 62 60 58 56 55 54 53 53 53 53 53 54 55 55 55 54 54 53 53 54 54 55 55 56
60 60 61 61 61 62 63 63 64 65 66 67 69 70 71 71 72 73 73 73 73 73 72 72 72 71 70 70 70 70 70 70 70 70 70 70 70 71 72 73 74 74 75 76 77 77 78 78 79 79 79 78 78 78 77 75 74 72 70 68 65 63 60 58 56 54 54 53 53 53 53 53 53 54 54 54 53 53 52 52 52 52 53 53 54 54
62 62 62 62 63 63 64 65 66 67 68 69 70 71 72 72 72 73 73 72 72 72 71 71 71 70 70 70 70 70 70 70 70 70 70 70 71 71 72 73 74 74 74 75 76 76 77 77 77 76 76 75 74 73 72 71 70 68 67 65 63 61 59 57 55 54 53 53 53 53 53 53 54 53 53 53 52 52 51 50 50 51 51 52 52 52
63 64 64 64 65 65 66 67 67 68 69 70 71 72 72 72 72 72 72 72 71 71 71 70 70 70 70 70 70 70 70 70 71 71 71 71 71 71 72 73 73 74 74 74 74 75 74 74 74 73 72 71 70 69 68 67 66 65 64 63 62 60 58 57 55 54 53 53 53 53 53 53 53 53 53 52 51 50 49 49 49 49 49 50 50 50
65 65 65 66 66 67 67 68 69 70 71 71 72 72 72 72 72 72 71 71 70 70 70 70 70 70 70 70 70 70 71 71 71 71 71 71 71 71 71 72 72 73 73 73 73 72 72 71 70 69 68 67 66 66 65 64 63 62 61 61 61 60 58 57 55 54 53 53 53 53 53 53 53 52 52 51 50 49 48 48 48 48 48 47 47 47
66 67 67 67 68 68 69 70 70 71 72 72 73 73 73 72 72 72 71 70 70 70 70 70 70 70 70 71 71 71 71 71 71 71 71 71 71 70 71 71 71 71 71 71 70 70 69 68 67 65 64 63 63 62 62 62 61 60 60 60 60 59 59 57 56 55 54 53 53 52 52 52 52 51 51 50 49 47 46 46 46 46 45 45 44 44
67 68 68 69 69 70 70 71 72 72 73 73 73 73 73 72 72 71 71 70 70 70 70 70 70 71 71 72 72 72 72 72 72 71 71 70 70 70 70 70 70 69 69 69 68 67 66 64 63 62 61 60 60 60 60 60 59 59 59 59 59 59 58 58 56 55 54 53 52 51 51 51 50 50 49 48 47 46 45 44 44 43 43 42 42 41
68 69 69 70 71 71 72 73 73 73 74 74 74 73 73 72 71 71 70 70 70 70 70 70 71 72 72 73 73 73 72 72 71 71 71 70 69 69 68 68 68 67 66 66 65 64 62 61 60 59 58 58 58 58 58 59 58 58 58 58 58 58 58 57 56 55 54 52 51 50 49 49 49 48 47 46 44 43 43 42 42 41 40 40 39 39
69 70 71 71 72 72 73 74 74 74 75 74 74 73 73 72 71 71 70 70 70 70 71 71 72 72 73 73 73 73 73 72 71 70 70 69 68 67 67 66 65 64 63 62 62 61 59 58 57 57 56 56 56 57 57 57 58 58 57 57 57 57 57 56 55 54 53 51 49 48 48 47 47 46 45 43 42 41 40 39 39 38 38 37 37 36
70 71 72 72 73 74 74 75 75 75 75 75 74 73 73 72 71 71 71 71 71 71 72 72 73 73 74 74 74 74 73 72 71 70 68 67 66 65 64 63 62 61 60 59 58 58 57 56 56 55 55 55 55 56 56 57 57 57 56 56 55 55 55 54 54 52 51 49 48 47 46 45 44 43 42 41 40 39 38 37 36 36 35 35 35 34
71 72 73 73 74 75 75 75 76 76 75 75 74 73 72 72 71 71 71 71 72 72 73 73 74 74 75 75 74 74 74 73 71 69 67 65 63 62 61 59 58 57 57 56 55 55 55 55 55 55 55 55 55 55 55 55 55 55 55 54 54 54 53 52 51 50 48 47 46 45 43 42 41 40 39 38 37 36 35 35 34 34 33 33 33 33
72 73 74 74 75 75 76 76 76 76 76 75 74 73 72 72 72 72 72 72 73 73 74 74 74 75 75 75 74 74 73 72 70 68 66 63 61 59 57 56 55 54 54 53 53 53 54 54 54 54 54 55 55 54 54 53 53 53 53 52 52 52 51 50 48 46 45 44 43 42 41 40 39 38 36 35 34 33 33 32 32 32 32 32 32 32
73 74 74 75 76 76 76 76 76 76 75 75 74 73 72 72 72 72 73 73 74 74 75 75 75 75 75 74 74 73 72 71 69 67 64 61 59 56 55 53 52 52 51 52 52 52 53 53 54 54 54 54 54 53 52 52 51 51 50 50 50 50 48 46 45 43 42 41 40 39 38 37 36 35 34 33 32 31 31 31 31 31 31 31 31 31
74 74 75 76 76 77 77 77 76 76 75 74 74 73 73 72 72 73 74 74 74 75 75 75 75 75 75 74 72 71 70 68 66 64 62 59 57 55 53 51 51 50 50 50 51 52 52 53 53 53 53 53 52 51 50 50 49 48 48 48 47 46 45 43 42 41 40 39 38 36 35 34 33 32 31 30 30 29 29 29 30 30 30 30 30 30
75 75 76 77 77 77 77 77 77 76 75 74 74 73 73 73 73 74 74 75 75 75 75 75 75 74 73 72 70 69 67 65 63 61 59 56 55 53 52 50 50 50 50 50 51 51 52 53 53 52 52 51 50 49 48 47 46 46 46 45 44 42 41 40 39 38 37 36 35 34 33 32 31 30 29 29 28 28 28 28 29 29 30 30 30 30
76 76 77 77 78 78 78 77 77 76 75 74 74 74 74 74 74 74 75 75 75 75 75 74 73 72 71 70 68 66 64 62 60 58 56 54 53 52 51 50 50 50 50 51 51 51 52 52 52 52 50 48 46 45 44 44 44 44 44 42 41 39 38 37 36 35 34 33 32 31 31 30 29 28 28 27 27 27 27 27 28 29 29 30 30 30
Wind_Direction
271 269 268 266 265 264 263 263 263 263 263 264 264 264 264 264 265 265 265 265 265 265 265 266 266 267 267 267 267 267 268 268 268 268 269 269 269 269 270 270 270 271 271 271 272 272 273 273 274 274 274 275 275 275 276 276 277 277 278 278 279 280 281 281 282 282 282 283 283 283 283 282 282 282 282 282 282 282 282 282 283 283 283 283 283 283
271 269 268 266 264 262 261 261 261 261 261 261 262 262 263 263 264 265 265 265 265 265 265 266 266 267 267 267 267 267 267 268 268 268 268 269 269 269 269 270 270 270 270 271 271 271 272 272 273 273 273 273 273 273 274 274 275 276 276 277 278 278 279 280 280 280 281 281 281 281 281 281 281 281 281 281 282 282 282 282 283 283 283 283 283 283
272 270 267 265 263 260 259 259 259 259 259 259 260 261 262 263 264 264 264 265 265 265 265 266 266 266 266 266 267 267 267 267 268 268 268 269 269 269 269 270 270 270 270 270 271 271 271 272 272 272 272 272 272 273 273 274 274 275 276 276 277 278 278 278 279 279 279 279 279 279 280 280 280 281 281 281 282 282 282 283 283 283 283 283 282 282
273 270 268 265 262 260 259 259 259 259 259 258 259 260 261 262 263 264 264 265 265 265 265 265 266 266 266 266 266 266 267 267 267 268 268 269 269 269 269 270 270 270 270 270 270 271 271 272 272 272 273 273 273 273 273 274 274 275 276 276 277 277 277 278 278 278 278 278 279 279 280 280 281 281 282 282 282 283 283 283 283 283 282 282 281 281
276 272 269 265 262 260 259 259 260 259 259 258 258 259 260 261 262 263 264 265 266 266 265 265 265 265 265 266 266 266 266 267 267 267 268 268 269 269 269 270 270 270 270 271 271 271 271 272 272 272 273 273 273 274 274 274 275 275 276 276 277 277 277 277 278 278 278 279 279 280 281 281 282 282 282 283 283 283 283 283 282 282 281 281 280 280
279 275 270 266 262 260 260 261 261 261 260 259 259 259 259 260 261 262 264 265 266 266 266 266 265 265 265 266 266 266 267 267 267 267 268 268 269 269 269 270 270 270 271 271 271 272 272 272 273 273 273 274 274 274 275 275 276 276 276 277 277 277 278 278 279 279 280 280 281 281 281 282 282 282 282 282 282 282 282 282 281 281 280 280 279 279
284 278 273 267 264 262 262 264 265 264 262 260 259 259 259 260 260 261 262 264 266 267 267 267 267 267 267 267 267 267 268 268 268 268 268 268 269 269 270 270 271 271 271 272 272 272 273 273 273 274 274 275 275 275 276 276 277 277 277 278 278 278 279 279 280 280 281 281 281 282 282 282 282 282 282 282 282 282 281 281 280 280 280 279 279 278
291 285 278 272 268 267 267 268 268 267 264 262 260 260 260 260 261 261 262 264 265 267 268 269 270 269 269 269 269 269 269 269 269 269 268 268 269 269 270 270 271 271 272 272 272 273 273 274 274 275 275 276 276 277 277 277 278 278 278 278 279 279 280 280 280 281 281 281 281 281 281 282 282 281 281 281 281 280 280 280 279 279 279 278 278 278
301 295 288 282 278 275 275 274 272 270 268 265 264 263 263 264 264 265 265 266 268 269 270 271 272 272 271 271 271 270 270 270 269 269 269 269 269 270 270 271 271 272 272 273 273 274 274 275 275 276 276 277 277 277 277 278 278 278 278 279 279 279 280 280 280 280 281 281 281 281 281 281 281 280 280 280 280 279 279 279 279 278 278 278 277 277
308 304 299 293 288 284 282 280 278 275 273 271 269 269 269 269 269 270 270 270 271 271 271 272 272 272 272 271 271 271 270 270 270 269 269 270 270 270 271 271 271 272 272 273 273 274 274 275 275 276 276 276 277 277 277 277 278 278 278 279 279 279 280 280 280 280 280 280 280 280 280 280 279 279 279 279 279 278 278 278 278 278 277 277 277 277
314 310 304 299 293 289 285 283 281 279 276 275 273 272 272 272 272 272 272 272 272 272 272 272 271 272 272 271 271 271 270 270 270 270 270 270 271 271 271 272 272 272 273 273 274 274 274 275 275 275 276 276 276 277 277 277 278 278 278 278 279 279 279 279 279 279 279 279 279 279 279 279 279 278 278 278 278 278 278 277 277 277 277 277 276 276
323 319 314 308 303 298 294 290 287 284 282 280 278 277 275 275 274 274 274 273 273 273 273 273 273 273 273 273 273 272 272 272 271 271 272 272 272 272 272 272 273 273 273 273 274 274 274 274 275 275 275 276 276 276 277 277 278 278 278 278 278 278 279 279 279 279 279 279 278 278 278 278 278 278 278 278 278 278 277 277 277 277 277 276 276 276
328 326 323 319 316 312 308 305 301 298 295 292 290 288 285 283 282 280 279 278 278 277 277 277 276 276 276 275 275 275 274 274 273 273 273 273 273 273 273 273 273 273 273 274 274 274 274 274 275 275 276 276 276 277 277 277 278 278 278 278 278 278 278 278 278 278 278 278 278 278 278 278 278 278 278 278 278 278 278 277 277 277 277 276 276 275
327 325 323 321 319 316 314 311 309 306 304 301 299 296 294 292 290 288 286 285 284 283 282 281 280 280 279 278 277 277 276 276 276 275 275 275 274 274 274 274 274 274 275 275 275 275 275 276 276 276 277 277 277 277 278 278 278 278 278 278 278 278 278 278 278 278 278 279 278 278 278 278 278 278 278 278 278 278 278 277 277 277 277 276 276 275
326 323 320 318 316 314 312 310 307 305 303 301 300 298 296 295 293 292 290 289 288 288 286 285 284 283 282 282 281 280 279 279 279 279 278 278 277 277 277 277 277 277 277 277 277 277 277 277 277 278 278 278 278 278 278 278 278 278 278 279 279 279 279 279 279 279 279 279 279 279 279 279 279 279 279 279 278 278 278 278 277 277 277 277 276 276
326 323 320 318 315 313 310 308 306 304 302 301 300 298 297 296 295 294 293 292 292 291 290 289 289 288 287 286 285 284 283 283 283 283 282 281 281 280 280 280 280 280 279 279 279 279 279 279 279 279 279 279 279 279 279 279 279 279 279 279 279 279 279 279 279 279 279 279 279 279 279 279 279 279 279 279 279 279 279 278 278 278 277 277 277 276
326 324 322 319 317 314 312 309 307 305 304 302 301 300 299 298 297 297 295 295 294 293 292 292 291 291 290 289 287 287 286 286 286 285 285 284 283 283 283 282 282 282 281 281 281 281 281 281 280 280 280 280 280 280 280 280 280 280 280 280 280 280 280 280 280 280 280 280 280 280 280 280 280 280 280 280 279 279 279 279 279 278 278 278 277 277
324 322 320 318 316 314 312 310 308 306 305 303 302 301 300 299 297 297 296 295 294 294 293 292 292 291 291 291 290 289 288 288 288 287 287 286 285 285 284 284 284 283 283 283 282 282 282 282 282 281 281 281 281 281 281 281 281 280 280 280 280 280 280 280 280 280 280 280 280 280 280 280 280 280 280 280 280 280 279 279 279 279 278 278 278 277
321 319 317 315 313 312 310 308 307 305 304 303 302 300 299 298 297 297 296 295 295 295 294 294 293 293 293 292 291 291 290 290 289 289 288 288 287 286 286 286 285 285 284 284 283 283 283 283 282 282 282 282 282 281 281 281 281 281 281 281 281 281 281 281 281 281 281 281 281 280 280 280 280 280 280 280 280 280 279 279 279 279 278 278 278 278
317 316 314 313 312 310 308 307 306 305 304 303 302 301 300 300 299 298 298 297 297 296 296 296 295 295 294 294 293 292 292 291 290 290 289 289 288 288 287 287 286 286 285 285 284 284 284 283 283 283 283 282 282 282 282 281 281 281 281 281 281 281 281 281 281 280 280 280 280 280 280 280 280 280 280 280 280 279 279 279 279 279 279 278 278 278
315 314 312 311 310 309 308 307 306 305 304 303 302 302 301 301 300 300 299 299 298 297 297 296 295 295 294 294 293 292 292 291 290 290 289 289 288 288 287 287 286 286 285 285 284 284 284 283 283 283 282 282 282 282 281 281 281 281 281 281 281 280 280 280 280 280 280 280 280 280 280 280 280 280 280 280 280 280 280 280 279 279 279 279 279 278
311 310 310 309 308 307 306 305 304 304 303 302 301 301 300 300 299 298 298 297 296 295 295 294 294 293 293 292 291 291 291 290 289 289 288 288 287 286 286 286 285 285 284 284 284 283 283 283 282 282 282 281 281 281 281 281 281 281 280 280 280 280 280 280 280 280 280 280 280 281 281 281 281 281 281 281 281 281 280 280 280 280 280 279 279 279
307 306 306 305 304 304 303 302 302 301 300 299 299 298 297 297 296 295 295 294 293 293 292 292 291 291 290 290 289 289 289 288 288 287 287 286 286 285 285 285 284 284 284 284 283 283 283 283 282 282 282 282 282 281 281 281 281 281 281 281 281 281 281 281 281 281 281 281 282 282 282 282 282 282 282 282 281 281 281 281 281 280 280 280 279 279
304 303 303 302 302 301 300 300 299 298 298 297 296 296 295 295 294 293 293 293 292 292 291 291 291 290 290 289 289 289 289 288 288 288 287 287 286 286 286 286 285 285 285 285 284 284 284 284 283 283 283 283 283 283 283 282 282 282 282 282 282 282 282 282 282 282 283 283 283 283 283 283 283 283 283 282 282 282 282 281 281 281 280 280 279 279
303 303 302 301 301 300 300 299 299 298 297 297 296 296 295 295 294 294 293 293 293 293 293 293 292 292 291 291 291 291 290 290 290 290 289 289 288 288 288 287 287 287 287 286 286 286 286 285 285 285 284 284 284 284 284 283 283 283 283 283 283 283 283 283 283 283 284 284 284 284 284 284 284 283 283 283 282 282 282 281 281 281 280 280 279 278
305 304 304 303 302 302 301 301 300 300 299 299 299 298 298 297 297 296 296 296 295 295 295 295 294 294 294 293 293 293 292 292 292 291 291 291 290 290 289 289 288 288 288 288 287 287 287 286 286 286 285 285 285 284 284 284 284 284 284 284 284 284 284 284 284 284 285 285 285 285 285 284 284 284 284 283 283 282 282 282 281 280 280 279 278 277
307 307 306 305 305 304 304 303 303 302 302 301 301 300 300 300 299 299 298 298 297 297 296 296 296 295 295 295 294 294 294 293 293 292 292 292 291 291 290 290 290 289 289 289 288 288 287 287 287 286 286 286 285 285 285 285 284 284 284 284 285 285 285 285 285 285 286 286 286 286 285 285 285 284 284 283 283 283 282 281 281 280 279 278 277 277
309 308 308 307 306 306 305 305 304 304 303 303 302 302 301 301 300 299 299 299 298 298 297 297 296 296 296 296 295 295 294 294 294 293 293 292 292 291 291 291 291 290 290 290 289 289 288 288 288 287 287 287 286 286 286 286 285 285 286 286 286 286 286 286 286 287 287 287 287 286 286 286 285 285 284 284 283 282 282 281 280 279 278 278 277 277
309 308 308 307 307 306 306 305 305 304 303 303 303 302 302 301 300 300 300 299 299 298 298 297 297 297 296 296 296 295 295 294 294 294 293 293 292 292 292 291 291 291 290 290 290 290 289 289 289 289 288 288 288 287 287 287 287 287 287 287 287 287 287 287 287 288 288 287 287 287 286 286 285 285 284 284 283 282 281 280 279 279 278 277 277 277
309 308 308 307 307 306 306 305 305 304 304 303 303 302 302 301 300 300 300 299 299 298 298 298 297 297 296 296 296 295 295 294 294 294 293 292 292 292 292 291 291 291 291 291 291 290 290 290 290 290 290 289 289 289 289 288 288 288 288 288 288 288 288 288 288 288 288 288 288 287 287 286 285 285 284 284 283 282 281 280 279 278 278 278 278 278
309 309 308 308 307 307 306 305 305 304 303 303 302 302 301 301 300 300 299 299 299 298 298 297 297 297 296 296 295 295 295 294 294 293 293 292 291 291 291 291 291 291 291 291 290 291 291 291 291 291 290 290 290 290 290 290 290 290 290 290 290 289 289 289 289 289 289 289 288 287 287 286 285 285 284 283 282 281 280 279 278 278 278 279 279 279
310 309 308 308 307 307 306 305 305 304 303 303 302 302 301 301 300 300 299 299 298 298 298 297 297 296 296 295 295 294 294 294 293 293 292 291 291 291 291 291 291 291 291 290 290 290 291 291 291 291 291 291 291 291 291 291 291 291 291 291 291 291 291 291 291 290 290 289 288 287 286 286 285 284 284 283 281 280 279 279 279 279 279 279 279 279
310 309 308 308 307 306 306 305 305 304 303 303 302 302 301 301 300 300 299 299 298 298 297 297 297 296 296 295 294 294 294 293 293 293 292 291 291 291 291 291 291 291 291 291 291 291 291 291 291 292 292 292 292 292 292 292 293 293 293 292 292 292 292 292 292 291 290 289 288 287 286 286 285 284 283 282 281 280 279 279 280 280 280 280 279 279
310 309 309 308 307 306 306 305 305 304 304 303 303 302 302 301 301 300 300 299 299 298 298 297 297 296 296 295 294 294 293 293 293 293 292 292 291 291 292 292 292 292 292 292 292 292 292 291 292 292 292 292 292 293 293 293 294 294 294 294 294 294 293 293 292 292 291 289 288 287 287 286 285 283 282 281 280 280 280 280 280 280 280 280 279 278
310 309 309 308 307 307 306 306 305 305 304 304 303 303 302 302 301 301 300 300 299 299 298 298 297 296 296 295 295 294 294 294 294 293 293 293 293 293 293 293 293 293 293 293 293 293 293 292 292 292 292 292 293 293 293 294 294 294 294 294 294 294 294 294 293 292 291 290 289 288 287 286 284 283 282 281 281 280 281 281 281 280 280 279 278 278
310 309 309 308 308 307 307 306 306 305 305 305 304 304 303 303 302 302 301 301 300 300 299 298 298 297 297 296 296 295 295 295 295 294 294 294 294 294 294 294 294 295 295 294 294 294 294 293 293 293 293 293 293 293 294 294 294 294 295 295 295 295 294 294 293 293 292 291 290 288 287 286 285 283 282 282 281 281 281 281 281 280 279 279 278 278
310 309 309 309 308 308 307 307 307 306 306 306 305 305 304 304 304 303 302 302 301 301 300 299 299 298 298 297 297 296 296 296 296 296 295 295 295 296 296 296 296 296 296 295 295 295 294 294 294 293 293 293 293 294 294 294 294 294 295 295 295 295 295 294 294 293 292 291 290 289 288 286 285 284 283 283 283 282 282 281 281 280 279 278 278 277
310 310 309 309 309 308 308 308 307 307 307 307 306 306 306 305 305 304 303 303 302 302 301 300 300 299 299 298 298 297 297 297 297 297 296 296 296 297 297 297 297 296 296 296 296 295 295 295 294 294 294 294 294 293 294 294 294 294 295 295 295 295 295 294 294 293 293 292 291 290 288 287 286 285 285 284 283 283 282 282 281 280 279 278 278 277
310 310 310 309 309 309 309 309 308 308 308 308 307 307 307 306 305 305 304 303 303 302 302 301 301 300 300 299 299 298 298 298 298 298 298 298 298 298 298 298 298 297 297 297 296 296 295 295 294 294 294 294 294 294 293 293 294 294 295 295 295 295 295 295 294 294 293 292 291 290 289 288 287 286 286 285 284 284 283 282 281 280 279 278 278 278
311 310 310 310 310 310 310 309 309 309 309 309 308 308 307 307 306 305 305 304 304 303 302 302 301 301 300 300 300 299 299 299 299 299 299 299 299 299 299 299 299 298 298 297 297 296 296 295 295 294 294 294 294 293 293 293 294 294 294 294 295 295 295 295 294 294 293 292 291 290 289 288 288 287 286 285 285 284 283 282 281 280 279 279 278 278
311 311 310 310 310 310 310 310 310 310 310 310 309 309 308 307 307 306 305 305 304 304 303 303 302 301 301 301 300 300 300 300 300 300 300 300 300 300 300 300 299 299 299 298 297 296 296 295 295 294 294 294 293 293 293 293 294 294 294 294 294 295 295 295 294 294 293 292 291 290 289 289 288 286 286 285 285 284 283 282 281 280 280 279 278 278
311 311 311 311 311 311 311 311 311 311 311 310 310 309 309 308 308 307 306 306 305 305 304 304 303 303 302 302 301 301 301 301 301 301 301 301 301 301 301 301 300 299 299 298 297 296 296 295 294 294 294 293 293 293 293 293 293 294 294 294 294 294 294 294 294 293 292 291 291 290 289 288 287 286 285 285 285 284 283 282 281 280 280 279 278 278
311 311 311 311 312 312 312 312 312 312 312 311 311 310 310 309 308 308 307 307 306 306 305 305 304 304 304 303 303 303 302 302 302 302 302 302 302 302 302 301 300 300 299 298 297 296 295 295 294 294 293 293 293 293 293 293 293 294 294 294 294 294 294 293 293 292 291 291 291 290 289 287 286 286 285 285 285 284 283 282 281 280 280 279 278 277
311 312 312 312 312 312 313 313 313 313 312 312 311 311 310 310 309 308 308 307 307 306 306 306 305 305 305 304 304 304 304 303 303 303 303 303 303 303 302 301 301 300 299 298 297 296 295 294 294 293 293 293 293 293 293 293 293 293 294 294 293 293 292 292 291 291 291 291 290 289 288 287 286 285 285 285 284 284 283 282 281 280 279 279 278 277
312 312 312 312 313 313 313 313 314 313 313 313 312 311 311 310 310 309 309 308 308 307 307 307 306 306 306 306 305 305 305 305 304 304 304 303 303 303 302 301 301 300 298 297 296 295 295 294 294 293 293 293 293 293 293 293 293 293 294 293 293 292 291 291 291 291 291 290 289 288 287 286 286 285 285 285 284 283 283 282 281 280 279 279 278 277
312 312 312 313 313 314 314 314 314 314 313 313 312 312 311 311 310 310 310 309 309 308 308 308 307 307 307 307 307 306 306 306 305 305 304 304 304 303 302 301 300 299 298 297 296 295 294 294 294 294 293 293 293 293 293 294 294 294 293 293 292 291 290 290 290 291 291 290 289 288 287 286 286 285 285 284 284 283 282 281 281 280 279 279 278 278
312 313 313 313 314 314 314 315 315 314 314 313 313 312 312 311 311 311 310 310 310 309 309 309 308 308 308 308 307 307 307 306 306 306 305 305 305 304 303 302 300 299 298 297 296 295 294 294 294 294 294 294 294 294 294 294 294 294 293 292 291 290 290 290 290 290 290 289 288 287 287 286 286 285 285 284 284 283 282 282 281 280 280 279 278 278
313 313 314 314 314 315 315 315 315 315 314 313 313 312 312 312 312 311 311 311 310 310 310 310 309 309 309 308 308 308 307 307 307 306 306 306 305 304 303 302 300 299 298 297 296 295 295 295 294 294 294 294 295 295 295 295 294 293 292 291 290 290 290 291 290 290 289 288 287 287 287 286 285 285 285 284 284 283 283 282 281 281 280 279 279 278
313 313 314 315 315 315 315 315 315 315 314 314 313 313 313 313 312 312 312 311 311 311 311 310 310 310 309 309 308 308 308 307 307 307 307 306 306 305 304 302 301 299 298 297 297 296 296 295 295 295 295 295 295 296 296 296 295 293 291 290 290 290 291 291 290 289 288 288 287 287 287 286 286 285 285 285 284 284 283 283 282 281 280 280 279 278
313 314 315 315 316 316 316 316 315 315 315 314 314 314 313 313 313 313 312 312 312 311 311 311 311 310 310 309 309 309 308 308 308 307 307 307 306 305 304 303 301 300 299 298 298 297 296 296 295 295 295 296 296 297 297 296 294 292 291 290 290 291 291 290 290 289 288 288 288 287 287 287 286 286 285 285 285 285 284 283 283 282 281 280 280 279
314 315 315 316 316 316 316 316 316 315 315 315 314 314 314 314 314 313 313 313 312 312 312 311 311 311 310 310 309 309 309 308 308 308 308 307 306 305 304 303 302 301 300 299 299 298 297 296 296 296 296 297 297 297 297 295 293 291 291 291 291 291 291 290 290 289 289 288 288 288 287 287 287 286 286 286 285 285 284 283 283 282 281 281 280 279
Height
10414 10415 10418 10421 10423 10425 10426 10429 10431 10432 10433 10434 10436 10436 10438 10439 10441 10442 10443 10444 10445 10446 10446 10447 10448 10449 10449 10449 10449 10449 10449 10449 10449 10449 10448 10448 10447 10447 10446 10446 10446 10446 10446 10446 10445 10444 10443 10443 10441 10441 10439 10438 10437 10436 10435 10434 10433 10433 10432 10431 10431 10430 10429 10429 10429 10428 10428 10428 10427 10426 10426 10425 10424 10424 10424 10423 10423 10422 10421 10421 10420 10419 10419 10418 10417 10416
10406 10408 10410 10413 10416 10418 10419 10421 10422 10424 10426 10427 10428 10429 10431 10433 10434 10435 10436 10436 10438 10439 10440 10441 10442 10443 10443 10443 10443 10443 10443 10443 10442 10441 10441 10441 10440 10439 10439 10439 10439 10439 10439 10438 10438 10437 10436 10436 10434 10434 10433 10432 10431 10430 10429 10428 10427 10426 10426 10425 10424 10423 10423 10423 10422 10421 10421 10420 10419 10419 10418 10418 10416 10416 10415 10414 10414 10413 10413 10412 10411 10411 10410 10409 10409 10408
10400 10401 10403 10406 10409 10411 10412 10413 10414 10416 10420 10421 10422 10423 10424 10427 10428 10429 10429 10429 10430 10432 10434 10435 10436 10436 10436 10436 10436 10436 10436 10435 10435 10434 10434 10433 10433 10432 10432 10431 10431 10431 10431 10431 10430 10429 10429 10428 10427 10426 10426 10426 10424 10424 10423 10422 10421 10419 10419 10418 10418 10417 10416 10416 10415 10414 10413 10413 10412 10411 10410 10409 10408 10408 10407 10406 10405 10404 10404 10403 10403 10402 10401 10401 10400 10399
10395 10396 10398 10400 10403 10404 10405 10406 10408 10411 10414 10416 10416 10417 10419 10421 10422 10422 10421 10422 10423 10426 10428 10429 10429 10429 10429 10429 10429 10429 10429 10428 10428 10428 10427 10426 10425 10424 10424 10424 10424 10424 10424 10423 10423 10422 10421 10421 10420 10419 10419 10418 10418 10416 10416 10414 10414 10413 10412 10411 10411 10409 10409 10408 10407 10406 10405 10404 10403 10403 10401 10401 10399 10399 10398 10397 10396 10396 10395 10394 10394 10393 10393 10392 10391 10391
10390 10391 10393 10395 10397 10398 10399 10401 10403 10405 10408 10409 10411 10412 10414 10416 10417 10416 10416 10415 10416 10418 10420 10422 10422 10422 10422 10422 10422 10422 10422 10422 10421 10421 10419 10419 10418 10418 10417 10417 10416 10416 10416 10416 10415 10414 10414 10413 10413 10412 10411 10411 10410 10409 10408 10408 10406 10406 10405 10404 10403 10402 10401 10400 10399 10398 10397 10396 10394 10394 10393 10392 10391 10390 10389 10388 10388 10387 10386 10386 10385 10384 10384 10384 10383 10383
10386 10388 10389 10391 10393 10394 10395 10396 10397 10400 10403 10405 10406 10408 10408 10410 10411 10411 10410 10409 10409 10411 10412 10414 10414 10415 10415 10415 10415 10415 10415 10415 10414 10414 10413 10412 10411 10410 10410 10409 10409 10409 10409 10408 10408 10407 10406 10406 10405 10404 10404 10403 10403 10402 10401 10400 10399 10398 10398 10396 10395 10394 10393 10391 10391 10389 10388 10387 10386 10385 10384 10383 10383 10381 10381 10380 10379 10379 10378 10378 10377 10376 10376 10375 10374 10374
10383 10384 10385 10387 10389 10391 10392 10392 10394 10397 10400 10401 10401 10402 10403 10404 10404 10405 10404 10404 10404 10404 10405 10406 10408 10408 10409 10409 10408 10409 10409 10409 10408 10408 10406 10405 10404 10404 10403 10403 10403 10402 10401 10401 10400 10399 10399 10398 10398 10397 10396 10396 10394 10394 10393 10392 10391 10390 10389 10388 10386 10385 10384 10383 10382 10381 10379 10379 10378 10377 10376 10375 10374 10373 10373 10372 10371 10370 10369 10369 10368 10368 10367 10366 10366 10366
10381 10381 10383 10384 10387 10388 10389 10389 10391 10394 10396 10396 10396 10397 10398 10399 10399 10400 10399 10399 10399 10399 10400 10400 10401 10402 10402 10402 10403 10403 10403 10402 10401 10401 10399 10398 10398 10397 10396 10396 10396 10395 10394 10393 10393 10392 10391 10391 10389 10389 10388 10388 10387 10386 10385 10384 10383 10381 10381 10379 10378 10377 10376 10374 10374 10373 10371 10371 10369 10369 10368 10367 10366 10366 10364 10364 10363 10363 10361 10361 10360 10359 10359 10358 10358 10358
10379 10380 10381 10383 10385 10386 10386 10387 10389 10391 10392 10393 10393 10393 10394 10394 10394 10395 10396 10396 10396 10396 10396 10396 10396 10396 10396 10396 10396 10396 10396 10395 10394 10393 10393 10391 10391 10391 10390 10389 10389 10388 10388 10386 10386 10385 10384 10383 10383 10381 10381 10380 10379 10378 10377 10376 10374 10373 10373 10371 10370 10369 10368 10366 10366 10364 10364 10363 10362 10361 10360 10359 10358 10358 10357 10356 10355 10354 10354 10353 10352 10351 10351 10351 10350 10349
10379 10380 10381 10381 10383 10384 10384 10384 10386 10387 10389 10389 10390 10390 10391 10391 10391 10391 10392 10391 10391 10391 10391 10391 10390 10389 10389 10389 10389 10389 10389 10388 10387 10386 10386 10385 10384 10384 10384 10383 10383 10382 10381 10380 10379 10378 10377 10376 10375 10374 10373 10373 10371 10370 10369 10368 10367 10366 10364 10363 10362 10361 10360 10359 10358 10357 10356 10355 10354 10353 10353 10351 10351 10349 10349 10348 10348 10346 10346 10345 10344 10344 10343 10343 10342 10341
10379 10379 10380 10381 10381 10381 10383 10383 10383 10384 10385 10386 10386 10386 10387 10387 10387 10387 10387 10386 10386 10386 10386 10385 10385 10384 10383 10383 10383 10383 10383 10381 10380 10379 10379 10379 10379 10378 10378 10376 10376 10376 10375 10374 10373 10371 10371 10369 10368 10368 10366 10365 10364 10363 10362 10361 10359 10358 10357 10356 10355 10354 10353 10351 10351 10349 10349 10348 10347 10346 10344 10344 10343 10342 10341 10340 10339 10339 10338 10337 10336 10336 10335 10334 10334 10333
10376 10377 10378 10378 10378 10379 10379 10380 10381 10381 10381 10382 10382 10382 10383 10383 10383 10383 10382 10381 10381 10381 10381 10380 10380 10379 10379 10378 10378 10378 10377 10376 10374 10374 10374 10374 10373 10373 10371 10370 10370 10369 10369 10368 10366 10365 10364 10363 10362 10361 10359 10358 10358 10356 10355 10354 10353 10351 10350 10349 10348 10346 10345 10344 10343 10342 10341 10340 10339 10338 10337 10336 10335 10334 10333 10333 10331 10331 10330 10329 10328 10328 10327 10326 10326 10325
10375 10375 10375 10375 10376 10376 10376 10376 10377 10377 10378 10378 10378 10378 10378 10379 10379 10379 10378 10378 10377 10376 10376 10376 10375 10374 10374 10374 10373 10372 10371 10369 10369 10369 10369 10368 10368 10366 10366 10364 10364 10363 10363 10361 10359 10358 10358 10356 10355 10354 10353 10352 10351 10349 10348 10347 10346 10344 10343 10341 10340 10339 10338 10336 10336 10334 10333 10332 10331 10329 10329 10328 10327 10326 10325 10324 10323 10323 10321 10321 10320 10319 10318 10318 10317 10316
10375 10375 10374 10374 10374 10374 10374 10374 10374 10374 10374 10374 10374 10374 10374 10374 10374 10374 10374 10373 10373 10372 10372 10371 10370 10369 10369 10369 10368 10367 10366 10364 10363 10363 10363 10363 10361 10361 10359 10359 10358 10357 10356 10355 10353 10352 10351 10350 10349 10348 10346 10346 10344 10343 10341 10340 10338 10337 10336 10334 10333 10331 10330 10329 10328 10326 10325 10324 10323 10321 10321 10319 10319 10318 10317 10316 10315 10314 10313 10312 10311 10310 10309 10309 10308 10307
10376 10376 10375 10374 10374 10374 10374 10374 10373 10373 10373 10373 10373 10372 10372 10371 10371 10371 10370 10369 10368 10368 10368 10366 10365 10364 10364 10364 10363 10362 10361 10359 10359 10358 10358 10356 10356 10355 10354 10353 10351 10351 10350 10349 10347 10345 10344 10344 10343 10341 10339 10339 10337 10336 10334 10333 10331 10329 10328 10326 10325 10324 10323 10321 10319 10318 10317 10316 10314 10313 10313 10311 10310 10309 10308 10307 10306 10305 10304 10303 10302 10301 10300 10299 10298 10298
10377 10376 10376 10375 10374 10374 10374 10373 10373 10372 10372 10371 10371 10370 10369 10368 10368 10368 10367 10366 10365 10364 10364 10363 10361 10360 10359 10359 10359 10358 10356 10355 10354 10353 10352 10350 10349 10349 10349 10348 10346 10344 10344 10343 10341 10339 10338 10337 10336 10334 10333 10331 10330 10329 10327 10325 10323 10322 10320 10319 10318 10316 10314 10313 10312 10310 10309 10308 10306 10305 10304 10303 10302 10301 10299 10298 10298 10296 10295 10294 10293 10291 10291 10289 10288 10287
10377 10376 10376 10374 10374 10373 10373 10373 10372 10371 10370 10369 10369 10368 10367 10366 10366 10364 10364 10363 10362 10361 10360 10359 10358 10357 10355 10354 10354 10354 10353 10351 10349 10349 10348 10345 10344 10344 10344 10343 10340 10338 10337 10336 10334 10333 10331 10330 10329 10327 10326 10324 10323 10321 10319 10318 10316 10314 10313 10311 10309 10308 10306 10305 10304 10302 10301 10299 10298 10297 10295 10294 10293 10292 10291 10289 10288 10287 10286 10284 10283 10282 10281 10279 10278 10277
10377 10376 10375 10374 10373 10373 10372 10371 10371 10369 10369 10368 10367 10366 10365 10364 10364 10363 10361 10361 10359 10358 10358 10356 10355 10354 10352 10350 10349 10349 10349 10347 10345 10343 10342 10340 10338 10338 10338 10336 10334 10332 10331 10329 10328 10326 10324 10323 10321 10320 10318 10317 10315 10314 10312 10310 10308 10306 10304 10303 10301 10300 10298 10297 10295 10294 10293 10291 10289 10288 10287 10286 10284 10283 10282 10280 10279 10278 10276 10275 10274 10272 10271 10269 10268 10267
10376 10376 10374 10373 10373 10371 10371 10370 10369 10368 10367 10366 10365 10364 10363 10362 10361 10360 10359 10358 10356 10355 10354 10352 10351 10349 10348 10346 10344 10343 10344 10343 10340 10338 10336 10334 10333 10331 10331 10330 10328 10326 10324 10322 10320 10319 10318 10316 10314 10313 10311 10309 10308 10306 10304 10302 10300 10298 10296 10295 10293 10292 10290 10289 10287 10286 10284 10283 10281 10280 10279 10277 10276 10274 10273 10272 10270 10269 10267 10266 10264 10263 10261 10260 10259 10258
10375 10374 10373 10372 10371 10370 10369 10368 10367 10366 10365 10364 10363 10361 10359 10359 10358 10356 10354 10353 10352 10351 10349 10348 10346 10344 10343 10341 10339 10338 10338 10337 10334 10332 10331 10329 10326 10324 10324 10323 10321 10318 10316 10315 10313 10312 10310 10308 10306 10305 10303 10301 10300 10298 10296 10294 10292 10290 10289 10287 10285 10284 10282 10280 10279 10277 10276 10274 10273 10272 10271 10269 10268 10266 10264 10263 10261 10260 10258 10257 10255 10254 10252 10251 10249 10248
10373 10372 10371 10370 10369 10368 10366 10365 10364 10363 10362 10361 10359 10358 10356 10354 10353 10351 10350 10349 10348 10346 10344 10343 10341 10339 10338 10336 10334 10333 10332 10331 10329 10326 10324 10323 10321 10319 10318 10316 10314 10311 10309 10307 10306 10304 10303 10301 10298 10297 10296 10294 10292 10290 10288 10286 10284 10283 10281 10279 10277 10276 10274 10272 10271 10269 10268 10266 10265 10264 10263 10261 10259 10258 10256 10254 10253 10251 10249 10248 10246 10244 10243 10241 10240 10238
10371 10369 10368 10368 10366 10365 10363 10362 10361 10360 10359 10357 10356 10354 10353 10351 10349 10348 10346 10345 10344 10342 10341 10339 10338 10336 10334 10332 10329 10328 10327 10326 10324 10321 10319 10317 10314 10313 10312 10310 10308 10304 10302 10300 10298 10297 10295 10293 10291 10289 10288 10286 10284 10282 10280 10278 10276 10274 10273 10271 10269 10267 10265 10264 10262 10261 10259 10258 10257 10256 10254 10253 10251 10249 10248 10246 10244 10243 10241 10239 10237 10236 10234 10232 10231 10229
10369 10368 10366 10365 10364 10363 10361 10359 10358 10357 10356 10354 10353 10351 10349 10348 10346 10344 10343 10341 10340 10338 10337 10335 10334 10332 10330 10328 10326 10324 10322 10321 10319 10316 10314 10311 10308 10306 10306 10304 10301 10298 10294 10293 10291 10289 10287 10285 10283 10281 10279 10278 10276 10273 10271 10269 10267 10265 10263 10261 10260 10258 10256 10255 10253 10252 10251 10249 10248 10247 10246 10244 10243 10241 10239 10238 10236 10234 10232 10230 10228 10226 10225 10223 10221 10219
10368 10366 10364 10363 10361 10359 10358 10356 10355 10354 10353 10351 10349 10348 10347 10345 10343 10341 10339 10338 10336 10334 10333 10331 10329 10327 10325 10323 10321 10318 10316 10315 10313 10310 10307 10304 10301 10299 10298 10297 10294 10289 10286 10284 10283 10281 10278 10275 10273 10272 10270 10268 10266 10264 10262 10260 10258 10256 10254 10253 10251 10249 10248 10246 10245 10244 10243 10241 10240 10239 10238 10236 10234 10233 10231 10229 10227 10225 10223 10221 10219 10218 10216 10214 10212 10210
10365 10363 10361 10360 10358 10357 10355 10353 10352 10350 10349 10347 10346 10344 10343 10341 10339 10337 10335 10333 10331 10329 10328 10326 10323 10321 10319 10318 10315 10312 10309 10308 10306 10303 10299 10296 10293 10291 10290 10289 10286 10282 10278 10276 10274 10273 10269 10266 10264 10262 10261 10259 10257 10255 10253 10251 10249 10248 10246 10244 10243 10241 10239 10238 10237 10236 10234 10234 10233 10231 10229 10228 10226 10224 10222 10220 10218 10216 10214 10213 10211 10209 10207 10205 10203 10200
10361 10360 10358 10356 10355 10353 10351 10349 10348 10346 10344 10343 10341 10339 10338 10336 10333 10331 10329 10328 10326 10324 10321 10319 10317 10315 10313 10311 10309 10306 10303 10301 10298 10295 10292 10288 10284 10282 10281 10280 10278 10274 10269 10267 10265 10263 10260 10257 10254 10253 10251 10250 10248 10246 10244 10243 10241 10239 10238 10236 10235 10233 10232 10231 10229 10228 10227 10226 10224 10223 10221 10219 10218 10216 10213 10211 10209 10208 10206 10204 10202 10200 10198 10196 10193 10191
10358 10356 10354 10353 10351 10349 10347 10345 10343 10341 10339 10338 10336 10334 10333 10330 10328 10325 10323 10321 10320 10318 10315 10313 10311 10308 10306 10304 10302 10299 10297 10294 10291 10288 10285 10281 10277 10273 10271 10271 10269 10266 10262 10258 10256 10254 10251 10248 10245 10243 10242 10241 10239 10238 10236 10234 10233 10231 10230 10229 10227 10226 10224 10223 10222 10221 10219 10218 10216 10215 10213 10211 10209 10207 10204 10203 10201 10199 10197 10195 10193 10191 10188 10186 10184 10181
10354 10353 10351 10349 10347 10345 10343 10341 10339 10337 10335 10333 10331 10329 10328 10325 10322 10319 10317 10316 10314 10311 10309 10306 10304 10302 10299 10298 10295 10293 10291 10288 10284 10281 10278 10274 10269 10266 10264 10263 10261 10258 10254 10251 10247 10244 10242 10239 10236 10234 10232 10231 10229 10228 10227 10226 10224 10223 10222 10221 10219 10218 10217 10216 10214 10213 10212 10210 10209 10207 10204 10203 10200 10198 10196 10194 10192 10190 10188 10186 10184 10182 10179 10177 10175 10173
10351 10349 10347 10345 10343 10341 10339 10338 10335 10333 10331 10329 10326 10324 10323 10320 10318 10314 10311 10309 10308 10305 10302 10300 10298 10296 10293 10291 10288 10286 10284 10281 10278 10274 10271 10267 10262 10258 10257 10255 10253 10251 10248 10244 10239 10235 10233 10229 10227 10224 10222 10220 10219 10218 10216 10216 10215 10214 10213 10212 10211 10210 10209 10208 10207 10206 10204 10203 10201 10199 10196 10194 10191 10189 10188 10186 10184 10182 10179 10178 10175 10173 10171 10169 10168 10166
10348 10346 10344 10342 10339 10338 10336 10333 10331 10329 10326 10324 10322 10319 10317 10315 10313 10309 10306 10304 10302 10299 10296 10293 10291 10289 10286 10284 10281 10279 10277 10274 10272 10269 10265 10260 10255 10252 10251 10248 10246 10244 10242 10238 10233 10228 10223 10220 10218 10216 10213 10209 10208 10206 10206 10206 10205 10204 10204 10203 10203 10202 10201 10200 10199 10198 10196 10194 10193 10190 10188 10186 10183 10181 10179 10178 10176 10174 10171 10169 10167 10165 10164 10162 10161 10160
10344 10342 10340 10338 10336 10334 10331 10329 10327 10324 10323 10320 10318 10315 10313 10310 10308 10304 10302 10299 10296 10293 10289 10286 10284 10281 10279 10277 10274 10271 10269 10268 10266 10263 10259 10254 10249 10246 10245 10242 10239 10237 10236 10233 10229 10223 10216 10211 10208 10206 10203 10200 10198 10196 10195 10195 10195 10195 10194 10194 10194 10193 10193 10193 10191 10190 10188 10186 10184 10182 10180 10178 10176 10174 10172 10170 10168 10166 10163 10161 10160 10159 10158 10156 10155 10154
10340 10338 10336 10334 10331 10329 10327 10325 10323 10320 10318 10316 10313 10310 10308 10305 10302 10299 10296 10293 10290 10287 10284 10280 10278 10274 10273 10270 10268 10265 10263 10261 10259 10257 10254 10249 10244 10241 10239 10236 10233 10230 10229 10228 10224 10219 10213 10206 10200 10196 10194 10190 10187 10185 10184 10184 10185 10185 10185 10185 10184 10184 10184 10184 10184 10182 10181 10179 10176 10174 10173 10171 10169 10167 10165 10163 10161 10158 10156 10155 10154 10153 10152 10151 10149 10148
10336 10334 10332 10329 10328 10325 10323 10321 10318 10316 10313 10310 10308 10305 10303 10299 10297 10294 10291 10288 10284 10281 10278 10274 10271 10268 10265 10263 10261 10258 10256 10254 10253 10250 10248 10243 10239 10235 10233 10231 10228 10224 10222 10220 10217 10214 10209 10203 10196 10191 10186 10182 10179 10176 10174 10174 10174 10175 10175 10175 10175 10175 10176 10176 10175 10174 10173 10171 10169 10167 10165 10164 10162 10160 10158 10156 10154 10152 10150 10149 10148 10148 10147 10145 10143 10141
10332 10330 10328 10326 10323 10321 10318 10316 10313 10311 10308 10305 10303 10299 10297 10294 10291 10288 10284 10281 10278 10275 10271 10268 10264 10261 10258 10255 10253 10251 10249 10248 10246 10244 10241 10237 10233 10229 10226 10224 10221 10218 10215 10212 10209 10206 10202 10198 10193 10187 10181 10176 10173 10169 10167 10166 10166 10166 10166 10166 10166 10166 10167 10167 10167 10166 10164 10163 10161 10160 10159 10157 10156 10154 10151 10149 10148 10146 10144 10144 10143 10143 10141 10139 10138 10135
10328 10326 10323 10321 10318 10316 10313 10311 10308 10306 10303 10300 10297 10294 10291 10288 10284 10281 10278 10274 10271 10268 10264 10261 10258 10254 10251 10248 10245 10243 10241 10240 10239 10237 10234 10231 10227 10223 10220 10217 10214 10212 10208 10204 10201 10198 10194 10190 10186 10182 10177 10171 10167 10164 10161 10159 10158 10157 10157 10158 10158 10158 10158 10159 10159 10158 10157 10156 10154 10153 10152 10151 10149 10147 10145 10143 10141 10140 10139 10139 10138 10137 10136 10134 10132 10129
10323 10321 10318 10316 10314 10311 10308 10306 10303 10300 10298 10294 10291 10288 10284 10281 10278 10274 10271 10268 10264 10261 10257 10254 10251 10248 10245 10242 10239 10236 10233 10232 10231 10229 10227 10224 10221 10217 10213 10210 10208 10205 10201 10197 10194 10191 10187 10183 10179 10175 10172 10167 10163 10158 10156 10154 10152 10151 10149 10150 10150 10151 10151 10151 10151 10150 10149 10148 10148 10146 10145 10144 10142 10140 10138 10137 10136 10135 10134 10134 10133 10132 10130 10128 10126 10124
10318 10316 10313 10311 10309 10306 10303 10300 10298 10295 10292 10288 10285 10282 10278 10275 10271 10268 10264 10260 10257 10253 10250 10247 10244 10241 10238 10235 10233 10229 10226 10224 10223 10221 10219 10217 10214 10211 10207 10203 10201 10198 10194 10191 10186 10183 10179 10176 10171 10168 10165 10162 10158 10154 10151 10148 10146 10145 10144 10144 10143 10143 10143 10144 10144 10144 10143 10141 10141 10139 10138 10136 10135 10133 10132 10131 10130 10129 10129 10128 10128 10126 10124 10123 10121 10119
10314 10311 10308 10306 10304 10301 10298 10295 10292 10289 10286 10283 10279 10276 10272 10268 10264 10261 10258 10254 10250 10246 10243 10239 10236 10234 10231 10228 10226 10223 10220 10218 10216 10213 10211 10209 10207 10204 10201 10197 10193 10191 10188 10184 10180 10176 10173 10169 10165 10161 10158 10156 10153 10149 10146 10143 10141 10139 10139 10138 10137 10136 10136 10137 10137 10137 10136 10135 10134 10133 10131 10129 10128 10127 10126 10125 10124 10124 10124 10123 10122 10120 10119 10117 10116 10114
10309 10306 10303 10301 10298 10296 10293 10289 10286 10283 10280 10277 10273 10269 10266 10262 10258 10254 10251 10248 10244 10240 10237 10233 10230 10227 10224 10221 10219 10216 10214 10211 10209 10206 10204 10202 10200 10198 10194 10190 10186 10183 10180 10177 10173 10169 10166 10162 10159 10156 10153 10149 10146 10144 10141 10139 10137 10136 10134 10133 10131 10130 10130 10130 10131 10131 10130 10129 10128 10126 10125 10123 10122 10121 10119 10119 10119 10118 10118 10117 10116 10114 10113 10111 10111 10110
10304 10301 10298 10296 10293 10290 10288 10284 10281 10278 10274 10271 10267 10263 10259 10256 10252 10248 10245 10241 10238 10234 10231 10228 10224 10221 10218 10215 10212 10209 10207 10204 10202 10199 10198 10195 10193 10190 10188 10184 10180 10176 10173 10169 10166 10163 10159 10156 10153 10150 10148 10144 10141 10139 10136 10134 10133 10131 10130 10128 10126 10124 10124 10124 10124 10124 10124 10123 10122 10120 10119 10118 10116 10115 10114 10113 10113 10113 10112 10111 10110 10109 10108 10107 10106 10105
10299 10296 10293 10290 10288 10284 10282 10279 10276 10272 10268 10264 10261 10257 10253 10249 10246 10242 10238 10235 10232 10228 10225 10221 10218 10214 10211 10209 10206 10203 10201 10198 10195 10193 10191 10188 10186 10183 10180 10177 10173 10169 10166 10162 10159 10156 10153 10149 10147 10144 10142 10139 10137 10134 10131 10129 10128 10127 10126 10123 10121 10119 10119 10118 10118 10118 10118 10118 10116 10115 10114 10113 10111 10109 10108 10108 10108 10108 10107 10106 10104 10103 10103 10102 10101 10100
10294 10291 10288 10285 10282 10279 10276 10273 10269 10266 10263 10259 10254 10251 10247 10243 10239 10236 10232 10228 10225 10221 10218 10215 10211 10207 10204 10201 10199 10197 10194 10191 10189 10186 10184 10181 10179 10176 10173 10170 10166 10163 10159 10156 10152 10149 10146 10144 10141 10139 10137 10135 10132 10129 10127 10125 10124 10123 10121 10119 10118 10116 10114 10113 10113 10113 10112 10111 10111 10110 10109 10107 10105 10104 10103 10103 10103 10102 10101 10100 10099 10099 10098 10097 10096 10096
10289 10286 10283 10280 10277 10274 10270 10267 10263 10259 10256 10252 10248 10244 10241 10238 10234 10229 10226 10222 10219 10215 10212 10208 10205 10201 10197 10194 10191 10189 10187 10184 10183 10180 10178 10175 10173 10169 10167 10163 10160 10157 10153 10149 10146 10143 10140 10138 10136 10134 10132 10130 10128 10125 10123 10121 10119 10118 10116 10115 10114 10111 10109 10108 10108 10107 10107 10106 10106 10105 10104 10102 10100 10099 10098 10098 10098 10097 10096 10096 10095 10094 10093 10093 10092 10091
10284 10281 10278 10274 10271 10268 10264 10261 10257 10253 10249 10246 10242 10238 10234 10231 10228 10224 10220 10216 10213 10209 10206 10202 10198 10194 10191 10188 10184 10182 10179 10177 10175 10173 10171 10169 10166 10163 10160 10157 10154 10151 10148 10144 10140 10137 10134 10133 10131 10129 10127 10125 10123 10121 10119 10117 10115 10113 10112 10111 10109 10108 10105 10104 10103 10102 10101 10101 10101 10100 10099 10097 10096 10094 10094 10094 10093 10093 10092 10091 10090 10089 10089 10089 10088 10088
10279 10276 10273 10269 10266 10263 10259 10255 10251 10248 10243 10239 10236 10232 10229 10225 10221 10218 10214 10210 10206 10203 10199 10196 10193 10188 10184 10181 10178 10175 10172 10169 10168 10166 10164 10163 10160 10158 10154 10151 10148 10144 10142 10138 10135 10132 10129 10127 10125 10124 10122 10121 10119 10116 10114 10113 10111 10109 10108 10106 10104 10103 10101 10099 10098 10098 10097 10096 10096 10095 10094 10093 10091 10091 10090 10089 10089 10088 10088 10087 10086 10086 10085 10084 10084 10084
10274 10271 10268 10264 10261 10257 10253 10249 10246 10241 10238 10234 10230 10226 10223 10219 10216 10212 10208 10204 10201 10196 10193 10190 10186 10183 10178 10174 10171 10168 10164 10162 10159 10158 10157 10156 10154 10151 10149 10146 10143 10139 10136 10133 10130 10128 10125 10123 10120 10118 10117 10116 10114 10113 10111 10109 10107 10105 10103 10101 10100 10098 10096 10095 10094 10094 10093 10091 10091 10090 10089 10088 10088 10086 10086 10086 10085 10084 10084 10083 10083 10082 10081 10081 10081 10081
10269 10266 10263 10259 10255 10251 10248 10244 10240 10236 10232 10228 10224 10221 10218 10214 10210 10206 10202 10199 10195 10191 10187 10183 10180 10176 10172 10168 10165 10162 10158 10155 10152 10151 10149 10148 10147 10145 10143 10140 10137 10134 10131 10128 10125 10123 10120 10118 10116 10114 10112 10111 10109 10108 10106 10104 10103 10101 10099 10097 10095 10093 10092 10091 10091 10089 10089 10087 10086 10086 10085 10084 10083 10083 10083 10082 10081 10081 10080 10079 10079 10079 10078 10078 10078 10077
10264 10261 10258 10254 10250 10246 10242 10238 10234 10230 10226 10223 10219 10215 10212 10208 10204 10201 10196 10193 10189 10185 10181 10177 10173 10169 10166 10163 10159 10156 10153 10149 10146 10144 10142 10141 10139 10138 10136 10134 10131 10129 10126 10124 10121 10118 10116 10113 10111 10109 10108 10106 10104 10103 10101 10100 10098 10096 10094 10092 10090 10089 10088 10087 10086 10086 10084 10083 10083 10082 10081 10081 10080 10079 10079 10079 10078 10078 10077 10076 10076 10075 10075 10074 10074 10074
10260 10256 10253 10249 10244 10241 10237 10233 10229 10224 10221 10217 10213 10209 10206 10203 10199 10196 10191 10187 10183 10179 10175 10171 10167 10163 10159 10156 10153 10150 10147 10143 10141 10138 10136 10135 10133 10131 10130 10128 10126 10124 10121 10119 10116 10114 10111 10108 10106 10104 10103 10102 10100 10099 10097 10095 10093 10091 10089 10088 10086 10085 10084 10083 10083 10081 10081 10079 10079 10078 10078 10077 10076 10076 10076 10076 10075 10074 10074 10073 10073 10072 10071 10071 10071 10071
10254 10251 10248 10243 10239 10235 10231 10228 10223 10219 10215 10211 10208 10204 10200 10197 10193 10189 10186 10181 10178 10173 10169 10165 10161 10157 10153 10149 10146 10144 10141 10138 10135 10133 10131 10129 10128 10126 10124 10122 10120 10118 10116 10114 10111 10109 10106 10103 10101 10100 10099 10098 10096 10095 10093 10091 10089 10087 10085 10084 10083 10082 10081 10079 10079 10078 10077 10076 10076 10075 10074 10074 10073 10073 10073 10073 10072 10072 10071 10071 10070 10069 10068 10068 10068 10068
10249 10246 10242 10238 10234 10230 10226 10222 10218 10214 10210 10206 10202 10198 10194 10191 10187 10184 10180 10176 10171 10168 10163 10159 10156 10152 10148 10144 10141 10138 10135 10133 10130 10128 10126 10124 10123 10121 10119 10117 10115 10113 10111 10109 10106 10104 10101 10099 10096 10094 10094 10094 10094 10092 10089 10086 10084 10082 10081 10079 10079 10079 10078 10076 10075 10074 10074 10073 10073 10072 10071 10071 10071 10070 10070 10069 10069 10069 10069 10068 10068 10066 10066 10065 10064 10064